Weather History for Alamosa, CO

Change the Weather History Date:

Monday, July 8, 2013

  Actual Average Record
Temperature  
Mean Temperature 67 °F 64 °F  
Max Temperature 82 °F 83 °F 91 °F (1989)
Min Temperature 51 °F 46 °F 35 °F (1945)
Degree Days  
Heating Degree Days 0 2  
Month to date heating degree days 8 16  
Since 1 June heating degree days 110 184  
Since 1 July heating degree days 8 16  
Cooling Degree Days 2 1  
Month to date cooling degree days 8 8  
Year to date cooling degree days 24 14  
Since 1 June cooling degree days 24 14  
Growing Degree Days 16 (Base 50)    
Moisture  
Dew Point 48 °F    
Average Humidity 59    
Maximum Humidity 93    
Minimum Humidity 25    
Precipitation  
Precipitation T in 0.03 in 1.15 in (1970)
Month to date precipitation 0.16 0.21  
Year to date precipitation 1.77 2.92  
Snow  
Snow 0.00 in 0.00 in 0.00 in (2002)
Month to date snowfall 0.0 0.0  
Since 1 June snowfall 0.0 0.0  
Since 1 July snowfall 0.0 0.0  
Snow Depth 0.00 in    
Sea Level Pressure  
Sea Level Pressure 30.08 in    
Wind  
Wind Speed 6 mph (West)    
Max Wind Speed 22 mph    
Max Gust Speed 26 mph    
Visibility 10 miles    
Events Rain , Thunderstorm    
T = Trace of Precipitation, MM = Missing Value Source: NWS Daily Summary

Daily Weather History Graph

Daily Weather History Graph

Search for Another Location

Airport:

Trip Planner

Search our weather history database for the weather conditions in past years. The results will help you decide how hot, cold, wet, or windy it might be!

Date:

Astronomy

Jul. 08, 2013 Rise Set
Actual Time 5:50 AM MDT 8:26 PM MDT
Civil Twilight 5:19 AM MDT 8:57 PM MDT
Nautical Twilight 4:41 AM MDT 9:35 PM MDT
Astronomical Twilight 3:58 AM MDT 10:18 PM MDT
Moon 6:19 AM MDT (7/8) 8:33 PM MDT (7/8)
Length of Visible Light 15h 38m
Length of Day
14h 36m
New Moon, 0% of the Moon is Illuminated
Jul 8
New Moon
Jul 15
First Quarter
Jul 22
Full
Jul 29
Last Quarter
Aug 6
New

Hourly Weather History & Observations

Time (MDT) Temp. Dew Point Humidity Pressure Visibility Wind Dir Wind Speed Gust Speed Precip Events Conditions
12:52 AM 55.0 °F 51.1 °F 86% 30.02 in 10.0 mi South 4.6 mph - N/A   Clear
1:52 AM 55.9 °F 52.0 °F 87% 30.01 in 10.0 mi ENE 3.5 mph - N/A   Mostly Cloudy
2:28 AM 57.2 °F 51.8 °F 82% 30.34 in 10.0 mi Calm Calm - N/A Thunderstorm Scattered Clouds
2:43 AM 57.2 °F 51.8 °F 82% 30.35 in 10.0 mi WNW 5.8 mph - 0.00 in Rain Light Rain
2:52 AM 57.9 °F 53.1 °F 84% 30.01 in 10.0 mi West 4.6 mph - 0.00 in   Mostly Cloudy
3:52 AM 59.0 °F 53.1 °F 81% 30.01 in 10.0 mi NNW 4.6 mph - 0.00 in   Scattered Clouds
4:52 AM 53.1 °F 51.1 °F 93% 30.05 in 10.0 mi East 3.5 mph - N/A   Scattered Clouds
5:52 AM 53.1 °F 51.1 °F 93% 30.06 in 10.0 mi Calm Calm - N/A   Clear
6:52 AM 55.0 °F 52.0 °F 89% 30.11 in 10.0 mi Calm Calm - N/A   Clear
7:52 AM 61.0 °F 53.1 °F 75% 30.09 in 10.0 mi Calm Calm - N/A   Partly Cloudy
8:52 AM 66.9 °F 52.0 °F 59% 30.09 in 10.0 mi North 6.9 mph - N/A   Clear
9:52 AM 70.0 °F 52.0 °F 53% 30.10 in 10.0 mi Calm Calm - N/A   Clear
10:52 AM 73.0 °F 52.0 °F 48% 30.09 in 10.0 mi Variable 3.5 mph - N/A   Clear
11:52 AM 77.0 °F 50.0 °F 39% 30.07 in 10.0 mi Calm Calm - N/A   Clear
12:52 PM 81.0 °F 46.9 °F 30% 30.04 in 10.0 mi North 4.6 mph - N/A   Clear
1:52 PM 80.1 °F 44.1 °F 28% 30.04 in 10.0 mi NNW 5.8 mph - N/A   Clear
2:52 PM 77.0 °F 42.1 °F 29% 30.04 in 10.0 mi NW 15.0 mph 26.5 mph N/A   Mostly Cloudy
3:26 PM 75.2 °F 44.6 °F 34% 30.34 in 10.0 mi WSW 10.4 mph - 0.00 in Rain Light Rain
3:52 PM 80.1 °F 41.0 °F 25% 30.02 in 10.0 mi West 8.1 mph - 0.00 in   Mostly Cloudy
4:52 PM 75.0 °F 46.0 °F 36% 30.07 in 10.0 mi West 19.6 mph 25.3 mph N/A   Mostly Cloudy
5:52 PM 77.0 °F 39.0 °F 25% 30.04 in 10.0 mi West 10.4 mph - N/A   Mostly Cloudy
6:52 PM 75.0 °F 44.1 °F 33% 30.03 in 10.0 mi WSW 9.2 mph - N/A   Clear
7:52 PM 71.1 °F 48.0 °F 44% 30.03 in 10.0 mi SSW 6.9 mph - N/A   Partly Cloudy
8:52 PM 71.1 °F 46.0 °F 41% 30.02 in 10.0 mi SSW 12.7 mph 26.5 mph N/A   Scattered Clouds
9:52 PM 69.1 °F 43.0 °F 39% 30.05 in 10.0 mi West 10.4 mph - N/A   Clear
10:52 PM 63.0 °F 46.0 °F 54% 30.07 in 10.0 mi South 4.6 mph - N/A   Clear
11:52 PM 59.0 °F 46.9 °F 64% 30.09 in 10.0 mi ESE 5.8 mph - N/A   Partly Cloudy